STARLINK-1677, 46576

Orbit data source: Space-Track

STARLINK-1677, 46576 is a payload satellite owned by SpaceX/Seattle (US) in LEO that was launched on Tue, 06 Oct 2020 UTC via an FALCON 9 launch vehicle from the Air Force Eastern Test Range (AFETR). Payload-class satellites include a variety of spacecraft equipped with specific instruments for various scientific and technological missions. These include communications satellites like Starlink; space stations such as the ISS; scientific satellites like the Hubble; Earth observation satellites from companies like Planet Labs, Umbra, and HawkEye 360; GPS; miniature CubeSats for education and research; and military/defense satellites.

Loading next visibility...
Identifier
46576, 2020-070AW
Orbit
LEO
Last TLE update
11 hours ago
Origin
Manufacturer
SpaceX/Seattle
Mission
Operational Commercial Communications
Bus & Motor
STARLINK, Unknown motor
Mass
260 kg wet, ~248 kg dry
Launch date (UTC)
2020-10-06 (5 years ago)
Launch vehicle
FALCON 9
Launch site
Air Force Eastern Test Range (AFETR)
Object type
Payload
Rocket body
Debris
Shape & HBR
Box + 1 Pan, 4.4 m
Radar Cross Section
13.562 m², Large (>1 m²)

Expand to show TLE details & history

TLE from 11 hours ago
0 STARLINK-1677
1 46576U 20070AW  25199.52294548  .00000145  00000-0  28662-4 0  9990
2 46576  53.0553 132.8383 0001534  94.1998 265.9167 15.06396614264427
Epoch: 2025-07-18T12:33Z
TLE epoch observation values (Epoch: 2025-07-18T12:33:02.489Z)
Latitude
0.00003°
Longitude
8.00477°
Altitude
548.177 km
Speed
7.589 km/s
True Right ascension
08h 51m 21s
True Declination
0° 00' 00"
Sunlit
Object was in daylight at epoch
Visualization orbit readout
Latitude
-26.73238°
Longitude
-16.18172°
Altitude
555.789 km
Speed
7.583 km/s
Apparent Right ascension
04h 21m 17s
Apparent Declination
-45° 56' 34"
Sunlit
Object is in daylight
Visualization observer readout
Local Sidereal Time
12:20:23
Azimuth
241.361° WSW
Elevation
-46.551°
Doppler factor
1
Orbital elements
Apogee altitude
548.555 km
Perigee altitude
546.43 km
Semi-major axis
6,925.63 km
Eccentricity
0.00015
Inclination
53.0553°
RAAN
132.8383°
Arg. of periapsis
94.1998°
True anomaly
265.89917°
Mean anomaly
265.9167°
Eccentric anomaly
265.90793°
Mean motion
3.76577 °/min
Orbital period
95.6 mins
BSTAR
0.000028662
Loading maneuver chart data...
Loading SW <> Apogee altitude chart data...
Loading historical data...
Loading historical data...
Loading historical data...
Loading historical data...
Loading historical data...
Loading historical data...
Loading historical data...
|